#timestamp,LO_Frequency,Hit 
1504249215.9,286046997.5,N
1504249235.7,286046999.4,N
1504249255.5,286046994.9,N
1504249275.4,286046994.4,N
1504249295.2,286046994.7,N
1504249315.0,286046995.4,N
1504249315.9,286046995.4,N
1504249335.8,286046994.0,N
1504249355.6,286046992.1,N
1504249375.4,286046994.2,N
1504249395.3,286046993.3,N
1504249415.1,286046995.5,N
1504249416.0,286046995.5,N
1504249435.8,286046997.3,N
1504249455.7,286046996.9,N
1504249475.5,286046995.6,N
1504249495.3,286046993.7,N
1504249515.2,286046990.1,P
1504249535.9,286046996.6,N
1504249555.7,286046997.2,N
1504249575.6,286046999.3,N
1504249595.4,286046995.9,N
1504249615.2,286046994.5,N
1504249635.1,286046998.9,N
1504249636.0,286046998.9,N
1504249655.8,286046999.7,N
1504249675.6,286046999.3,N
1504249695.4,286047001.1,N
1504249715.3,286047000.9,N
1504249735.1,286046999.0,N
1504249755.8,286047003.9,N
1504249775.7,286047004.4,N
1504249795.5,286047004.0,N
1504249815.3,286047001.2,N
1504249835.2,286047000.0,N
1504249855.9,286047001.0,N
1504249875.7,286046999.3,N
1504249895.6,286046998.5,N
1504249915.4,286047001.2,N
1504249935.2,286047000.3,N
1504249955.0,286047000.0,N
1504249956.0,286047000.0,N
1504249975.8,286046998.6,N
1504249995.6,286047000.8,N
1504250015.4,286047002.4,N
1504250035.3,286047002.3,N
1504250055.1,286046996.5,N
1504250075.8,286046997.4,N
1504250095.7,286046996.9,N
1504250115.5,286046998.9,N
1504250135.3,286046998.3,N
1504250155.2,286047000.6,N
1504250175.9,286047004.3,N
1504250195.7,286047000.5,N
1504250215.6,286047001.4,N
1504250235.4,286047003.4,N
1504250255.2,286047003.2,N
1504250275.1,286047005.3,N
1504250276.0,286047005.3,N
1504250295.8,286047007.0,N
1504250315.6,286047006.4,N
1504250335.4,286047006.6,N
1504250355.3,286047009.3,P
1504250375.1,286047003.7,N
1504250395.9,286047002.7,N
1504250415.7,286046996.5,N
1504250435.5,286047002.8,N
1504250455.3,286046997.3,N
1504250475.2,286046995.4,N
1504250495.0,286046993.6,N
1504250495.9,286046993.6,N
1504250515.7,286046994.6,N
1504250535.6,286046995.5,N
1504250555.4,286046999.0,N
1504250575.2,286046997.8,N
1504250595.1,286046999.1,N
1504250596.0,286046999.1,N
1504250615.8,286046998.3,N
1504250635.6,286046998.8,N
1504250655.5,286046999.7,N
1504250675.3,286047000.0,N
1504250695.1,286047000.4,N
1504250715.9,286047000.3,N
1504250735.7,286046996.0,N
1504250755.5,286046996.1,N
1504250775.3,286046995.3,N
1504250795.2,286046996.8,N
1504250815.0,286046995.7,N
1504250815.9,286046995.7,N
1504250835.7,286046995.6,N
1504250855.6,286046995.9,N
1504250875.4,286046995.4,N
1504250895.2,286047004.3,N
1504250915.1,286047001.8,N
1504250916.0,286047001.8,N
1504250935.8,286047002.4,N
1504250955.6,286047000.6,N
1504250975.5,286047002.8,N
1504250995.3,286047001.4,N
1504251015.1,286047004.3,N
1504251035.9,286047003.9,N
1504251055.7,286047002.3,N
1504251075.5,286046998.1,N
1504251095.4,286046999.9,N
1504251115.2,286046998.3,N
1504251135.0,286047000.8,N
1504251135.9,286047000.8,N
1504251155.8,286046999.2,N
1504251175.6,286047001.0,N
1504251195.4,286047002.5,N
1504251215.2,286047000.6,N
1504251235.1,286047000.8,N
1504251236.0,286047000.8,N
1504251255.8,286047002.8,N
1504251275.6,286047001.8,N
1504251295.5,286047000.1,N
1504251315.3,286047000.5,N
1504251335.1,286047002.8,N
1504251355.9,286047005.6,N
1504251375.7,286046999.7,N
1504251395.5,286047000.4,N
1504251415.4,286046998.2,N
1504251435.2,286046997.4,N
1504251455.0,286046994.6,N
1504251455.9,286046994.6,N
1504251475.8,286046996.9,N
1504251495.6,286047001.9,N
1504251515.4,286047001.9,N
1504251535.3,286046998.2,N
1504251555.1,286046999.3,N
1504251556.0,286046999.3,N
1504251575.8,286046998.7,N
1504251595.7,286046997.3,N
1504251615.5,286046999.2,N
1504251635.3,286046995.1,N
1504251655.1,286046995.2,N
1504251675.9,286046995.8,N
1504251695.7,286046995.2,N
1504251715.5,286046995.1,N
1504251735.4,286046993.4,N
1504251755.2,286046997.4,N
1504251775.0,286046998.0,N
1504251775.9,286046998.0,N
1504251795.8,286046994.3,N
1504251815.6,286046995.8,N
1504251835.4,286046996.4,N
1504251855.3,286046994.2,N
1504251875.1,286046992.9,N
1504251876.0,286046992.9,N
1504251895.8,286046995.9,N
1504251915.7,286046991.5,P
1504251935.5,286046990.6,P
1504251955.3,286046991.0,P
1504251975.2,286046994.0,N
1504251995.9,286046992.1,P
1504252015.7,286047001.3,P
1504252035.6,286047001.2,N
1504252055.4,286047006.0,N
1504252075.2,286047005.3,N
1504252095.1,286046999.8,N
1504252096.0,286046999.8,N
1504252115.8,286047004.1,N
1504252135.6,286046998.1,N
1504252155.5,286046998.7,N
1504252175.3,286047002.4,N
1504252195.1,286046998.8,N
1504252215.8,286047000.0,N
1504252235.7,286047000.4,N
1504252255.5,286047002.1,N
1504252275.3,286046999.7,N
1504252295.2,286047000.7,N
1504252315.0,286046998.4,N
1504252315.9,286046998.4,N
1504252335.7,286046999.6,N
1504252355.6,286047001.2,N
1504252375.4,286047004.2,N
1504252395.2,286047003.2,N
1504252415.1,286047007.4,N
1504252416.0,286047007.4,N
1504252435.8,286047007.4,N
1504252455.6,286047007.2,N
1504252475.5,286047003.2,N
1504252495.3,286046998.1,N
1504252515.1,286047005.4,N
1504252535.9,286047003.8,N
1504252555.7,286047004.0,N
1504252575.5,286046998.3,N
1504252595.4,286047004.0,N
1504252615.2,286047002.1,N
1504252635.0,286046998.1,N
1504252635.9,286046998.1,N
1504252655.7,286046999.6,N
1504252675.6,286046997.1,N
1504252695.4,286046996.7,N
1504252715.2,286046998.0,N
1504252735.1,286046995.0,N
1504252736.0,286046995.0,N
1504252755.8,286046997.2,N
1504252775.6,286046995.4,N
1504252795.5,286047001.0,N
